Eau Claire, WI

8:37 AM CST on November 18, 2017 (GMT -0600)
Chippewa Valley Regional

Weather History for KEAU - March, 2014

Change the Weather History Date:

Tuesday, March 25, 2014

  Actual Average Record
Temperature  
Mean Temperature 14 °F 35 °F  
Max Temperature 20 °F 46 °F 80 °F (2007)
Min Temperature 7 °F 25 °F -1 °F (1955)
Degree Days  
Heating Degree Days 51 30  
Month to date heating degree days 1106 876  
Since 1 July heating degree days 7998 6896  
Cooling Degree Days 0 0  
Month to date cooling degree days 0 0  
Year to date cooling degree days 0 0  
Moisture  
Dew Point 1 °F    
Average Humidity 59    
Maximum Humidity 73    
Minimum Humidity 45    
Precipitation  
Precipitation T in 0.07 in 0.86 in (1906)
Month to date precipitation 0.22 1.30  
Year to date precipitation 3.42 3.00  
Snow  
Snow T in 0.20 in 6.00 in (1923)
Month to date snowfall 3.2 7.3  
Since 1 July snowfall 64.9 43.6  
Snow Depth 11.00 in    
Sea Level Pressure  
Sea Level Pressure 30.22 in    
Wind  
Wind Speed 10 mph (WNW)    
Max Wind Speed 21 mph    
Max Gust Speed 27 mph    
Visibility 10 miles    
Events Snow    
T = Trace of Precipitation, MM = Missing Value Source: NWS Daily Summary

Daily Weather History Graph

Daily Weather History Graph

Search for Another Location

Airport or City:

Trip Planner

Search our weather history database for the weather conditions in past years. The results will help you decide how hot, cold, wet, or windy it might be!

Date:

Astronomy

Mar. 25, 2014 Rise Set
Actual Time 6:59 AM CDT 7:24 PM CDT
Civil Twilight 6:30 AM CDT 7:54 PM CDT
Nautical Twilight 5:55 AM CDT 8:28 PM CDT
Astronomical Twilight 5:20 AM CDT 9:04 PM CDT
Moon 3:34 AM CDT (3/25) 1:43 PM CDT (3/25)
Length of Visible Light 13h 23m
Length of Day
12h 25m
Waning Crescent, 32% of the Moon is Illuminated
Mar 25
Waning Crescent
Mar 30
New
Apr 7
First Quarter
Apr 15
Full
Apr 22
Last Quarter

Hourly Weather History & Observations

Time (CDT) Temp. Windchill Dew Point Humidity Pressure Visibility Wind Dir Wind Speed Gust Speed Precip Events Conditions
12:56 AM 19.0 °F 8.2 °F 7.0 °F 59% 30.09 in 9.0 mi West 9.2 mph - 0.00 in Snow Light Snow
1:05 AM 19.9 °F 8.6 °F 8.1 °F 60% 30.04 in 6.0 mi WNW 10.4 mph - 0.00 in Snow Light Snow
1:45 AM 18.0 °F 6.1 °F 12.0 °F 78% 30.05 in 9.0 mi WNW 10.4 mph - 0.00 in   Mostly Cloudy
5:56 AM 10.0 °F -0.9 °F -2.9 °F 56% 30.18 in 10.0 mi NW 6.9 mph - N/A   Clear
6:56 AM 9.0 °F -6.6 °F -5.1 °F 53% 30.22 in 10.0 mi NNW 12.7 mph - N/A   Clear
7:56 AM 9.0 °F -5.9 °F -4.0 °F 56% 30.24 in 10.0 mi WNW 11.5 mph - N/A   Clear
8:56 AM 9.0 °F -8.5 °F -2.9 °F 59% 30.25 in 10.0 mi NW 16.1 mph 21.9 mph N/A   Clear
9:56 AM 10.0 °F -7.1 °F -2.9 °F 56% 30.27 in 10.0 mi NW 16.1 mph 23.0 mph N/A   Clear
10:56 AM 10.9 °F -2.6 °F -2.0 °F 56% 30.28 in 10.0 mi NW 10.4 mph - N/A   Clear
11:56 AM 14.0 °F -0.2 °F -2.9 °F 47% 30.28 in 10.0 mi NW 12.7 mph 20.7 mph N/A   Clear
12:56 PM 16.0 °F 1.1 °F -0.0 °F 49% 30.27 in 10.0 mi WNW 15.0 mph 21.9 mph N/A   Clear
1:56 PM 17.1 °F 3.6 °F -0.0 °F 47% 30.25 in 10.0 mi WNW 12.7 mph 23.0 mph N/A   Clear
2:56 PM 17.1 °F 2.0 °F 1.0 °F 50% 30.25 in 10.0 mi West 16.1 mph 25.3 mph N/A   Overcast
3:56 PM 19.0 °F 5.0 °F 1.9 °F 47% 30.24 in 10.0 mi West 15.0 mph - N/A   Overcast
4:56 PM 19.0 °F 4.0 °F 1.9 °F 47% 30.24 in 10.0 mi West 17.3 mph 24.2 mph N/A   Overcast
5:56 PM 19.9 °F 8.6 °F 1.9 °F 46% 30.23 in 10.0 mi West 10.4 mph 20.7 mph N/A   Partly Cloudy
6:56 PM 19.0 °F 7.5 °F 1.9 °F 47% 30.23 in 10.0 mi WNW 10.4 mph - N/A   Clear
7:56 PM 17.1 °F 10.0 °F 1.9 °F 52% 30.23 in 10.0 mi West 4.6 mph - N/A   Clear
8:56 PM 12.9 °F 6.9 °F 3.0 °F 65% 30.23 in 10.0 mi SSW 3.5 mph - N/A   Clear
9:56 PM 12.9 °F - 3.0 °F 65% 30.23 in 10.0 mi Calm Calm - N/A   Clear
10:56 PM 10.9 °F - 3.0 °F 70% 30.23 in 10.0 mi Calm Calm - N/A   Clear
11:56 PM 10.9 °F - 3.9 °F 73% 30.23 in 10.0 mi Calm Calm - N/A   Clear